Location: La Brionne
(46.1728°N, 1.7849°E)
Time: 17:49:58
(UTC+00:00)

USA 215 - Pass Details

Date: 28 October 2021
Orbit: 1099 x 1109 km, 123.0° (Epoch: 20 November)

Event Time Altitude Azimuth Distance (km) Brightness Sun altitude
Exits shadow 21:32:57 20° 315° (NW) 2,314 5.3 -48.2°
Drops below altitude 10° 21:35:01 10° 304° (WNW) 2,964 6.0 -48.5°
Sets 21:37:42 0° 296° (WNW) 3,924 6.8 -48.8°
